Simultaneous Nadir Overpasses (SNOs) Predictions

Prediction of SNOs between GOES-15 and METOP-C Satellite Orbit:

Table of predicted SNOs for the next 14.0 days since TLE Epoch: 3/14/2020
Index Date Time (GOES-15) GOES-15 Lat,Lon METOP-C Lat,Lon Distance(km) Time Diff (sec)
1 03/15/2020 06:20:41 -0.24,-128.29 -1.02,-131.83 402.62 80
2 03/16/2020 05:57:22 -0.22,-128.27 0.12,-126.84 164.02 80
3 03/17/2020 18:18:55 0.25,-128.30 0.94,-131.39 352.75 80
4 03/18/2020 17:55:36 0.23,-128.28 -0.20,-126.41 213.69 80
5 03/20/2020 06:17:15 -0.25,-128.20 -0.88,-130.99 318.38 80
6 03/21/2020 05:53:57 -0.23,-128.18 0.26,-126.00 248.06 80
7 03/22/2020 18:15:29 0.26,-128.20 0.80,-130.56 268.96 80
8 03/23/2020 17:52:11 0.24,-128.18 -0.34,-125.57 297.43 80
9 03/25/2020 06:13:50 -0.26,-128.09 -0.74,-130.15 235.11 80
10 03/26/2020 05:50:32 -0.25,-128.07 0.40,-125.16 331.02 80
11 03/27/2020 18:12:04 0.27,-128.08 0.65,-129.72 186.83 80




NCC Satellite Simultaneous Nadir Overpasses (SNOs) Prediction Service
